Weather History for KMSS - February, 2014

Change the Weather History Date:

Wednesday, February 26, 2014

  Actual Average Record
Temperature  
Mean Temperature 8 °F 21 °F  
Max Temperature 15 °F 31 °F 55 °F (2002)
Min Temperature 0 °F 10 °F -24 °F (2003)
Degree Days  
Heating Degree Days 57 44  
Month to date heating degree days 1271 1237  
Since 1 July heating degree days 6053 5900  
Cooling Degree Days 0 0  
Month to date cooling degree days 0  
Year to date cooling degree days 0  
Moisture  
Dew Point 1 °F    
Average Humidity 65    
Maximum Humidity 84    
Minimum Humidity 46    
Precipitation  
Precipitation T in 0.07 in 1.14 in (1961)
Month to date precipitation 1.28 1.63  
Year to date precipitation 2.74 3.81  
Sea Level Pressure  
Sea Level Pressure 29.80 in    
Wind  
Wind Speed 12 mph (SSW)    
Max Wind Speed 29 mph    
Max Gust Speed 36 mph    
Visibility 5 miles    
Events Snow    
T = Trace of Precipitation, MM = Missing Value Source: NWS Daily Summary

Daily Weather History Graph

Daily Weather History Graph

Search for Another Location

Airport or City:

Trip Planner

Search our weather history database for the weather conditions in past years. The results will help you decide how hot, cold, wet, or windy it might be!

Date:

Astronomy

Feb. 26, 2014 Rise Set
Actual Time 6:42 AM EST 5:42 PM EST
Civil Twilight 6:12 AM EST 6:12 PM EST
Nautical Twilight 5:38 AM EST 6:46 PM EST
Astronomical Twilight 5:04 AM EST 7:20 PM EST
Moon 4:32 AM EST (2/26) 2:49 PM EST (2/26)
Length of Visible Light 11h 59m
Length of Day
11h 00m
Waning Crescent, 10% of the Moon is Illuminated
Feb 26
Waning Crescent
Mar 1
New
Mar 8
First Quarter
Mar 16
Full
Mar 23
Last Quarter

Hourly Weather History & Observations

Time (EST) Temp. Windchill Dew Point Humidity Pressure Visibility Wind Dir Wind Speed Gust Speed Precip Events Conditions
12:48 AM 12.2 °F -1.0 °F 6.8 °F 79% 29.85 in 2.5 mi South 10.4 mph - 0.00 in Snow Light Snow
12:53 AM 12.9 °F 0.7 °F 7.0 °F 77% 29.88 in 2.5 mi South 9.2 mph - 0.00 in Snow Light Snow
1:00 AM 12.9 °F 0.7 °F 7.0 °F 77% 29.85 in 4.0 mi South 9.2 mph - 0.00 in Snow Light Snow
1:53 AM 12.0 °F 4.1 °F 8.1 °F 84% 29.86 in 7.0 mi South 4.6 mph - 0.00 in   Overcast
2:53 AM 10.0 °F 3.6 °F 6.1 °F 84% 29.82 in 10.0 mi SE 3.5 mph - N/A   Mostly Cloudy
3:53 AM 12.0 °F 1.5 °F 7.0 °F 80% 29.79 in 10.0 mi South 6.9 mph - N/A   Overcast
4:00 AM 12.0 °F 2.7 °F 7.0 °F 80% 29.76 in 5.0 mi South 5.8 mph - 0.00 in Snow Light Snow
4:11 AM 12.0 °F 2.7 °F 7.0 °F 80% 29.76 in 2.0 mi South 5.8 mph - 0.00 in Snow Light Snow
4:18 AM 12.0 °F 2.7 °F 7.0 °F 80% 29.76 in 1.8 mi South 5.8 mph - 0.00 in Snow Light Snow
4:44 AM 12.0 °F 4.1 °F 8.1 °F 84% 29.74 in 2.5 mi South 4.6 mph - 0.00 in Snow Light Snow
4:53 AM 12.0 °F 4.1 °F 8.1 °F 84% 29.76 in 2.0 mi South 4.6 mph - 0.00 in Snow Light Snow
5:03 AM 12.0 °F 4.1 °F 8.1 °F 84% 29.74 in 1.5 mi South 4.6 mph - 0.00 in Snow Light Snow
5:13 AM 12.0 °F 4.1 °F 8.1 °F 84% 29.73 in 1.2 mi South 4.6 mph - 0.00 in Snow Light Snow
5:20 AM 12.0 °F 4.1 °F 8.1 °F 84% 29.73 in 2.0 mi South 4.6 mph - 0.00 in Snow Light Snow
5:37 AM 12.9 °F 3.8 °F 8.1 °F 81% 29.73 in 4.0 mi SW 5.8 mph - 0.00 in Snow Light Snow
5:46 AM 12.9 °F 3.8 °F 9.0 °F 84% 29.73 in 1.8 mi SW 5.8 mph - 0.00 in Snow Light Snow
5:53 AM 12.9 °F 2.6 °F 9.0 °F 84% 29.76 in 1.0 mi SSW 6.9 mph - 0.00 in Snow Light Snow
6:02 AM 14.0 °F 2.0 °F 10.0 °F 84% 29.73 in 0.8 mi SW 9.2 mph - 0.00 in Snow Light Snow
6:14 AM 14.0 °F 2.9 °F 10.0 °F 84% 29.73 in 1.2 mi WSW 8.1 mph - 0.00 in Snow Light Snow
6:23 AM 15.1 °F 3.3 °F 10.0 °F 80% 29.73 in 2.0 mi WSW 9.2 mph - 0.00 in Snow Light Snow
6:40 AM 14.0 °F 0.5 °F 7.0 °F 74% 29.73 in 4.0 mi WSW 11.5 mph - 0.00 in Snow Light Snow
6:53 AM 14.0 °F 1.2 °F 7.0 °F 74% 29.76 in 10.0 mi WSW 10.4 mph - 0.00 in   Overcast
7:53 AM 12.0 °F -5.1 °F 1.0 °F 61% 29.79 in 9.0 mi WSW 17.3 mph 26.5 mph 0.00 in   Scattered Clouds
8:43 AM 10.0 °F -9.5 °F -2.9 °F 56% 29.78 in 2.0 mi SW 21.9 mph 33.4 mph 0.00 in   Scattered Clouds
8:53 AM 10.0 °F -8.6 °F -4.0 °F 53% 29.81 in 2.5 mi SW 19.6 mph 31.1 mph 0.00 in   Partly Cloudy
9:02 AM 10.0 °F -8.6 °F -5.1 °F 51% 29.79 in 1.8 mi WSW 19.6 mph 34.5 mph 0.00 in   Clear
9:11 AM 10.0 °F -8.6 °F -5.1 °F 51% 29.80 in 2.0 mi SW 19.6 mph 32.2 mph 0.00 in   Clear
9:23 AM 10.0 °F -8.6 °F -6.0 °F 48% 29.80 in 3.0 mi WSW 19.6 mph 31.1 mph 0.00 in   Haze
9:31 AM 10.0 °F -9.1 °F -6.0 °F 48% 29.80 in 2.5 mi WSW 20.7 mph 31.1 mph 0.00 in   Clear
9:39 AM 10.0 °F -7.1 °F -6.0 °F 48% 29.81 in 6.0 mi WSW 16.1 mph 29.9 mph 0.00 in   Haze
9:53 AM 10.0 °F -8.1 °F -6.0 °F 48% 29.84 in 4.0 mi WSW 18.4 mph 29.9 mph 0.00 in   Haze
10:53 AM 10.9 °F -7.9 °F -4.0 °F 51% 29.85 in 2.0 mi SW 20.7 mph 33.4 mph 0.00 in   Haze
11:07 AM 10.9 °F -10.3 °F -4.0 °F 51% 29.82 in 3.0 mi SW 27.6 mph 35.7 mph 0.00 in   Haze
11:14 AM 10.9 °F -7.9 °F -2.9 °F 54% 29.82 in 2.0 mi WSW 20.7 mph 35.7 mph 0.00 in   Haze
11:24 AM 10.9 °F -7.5 °F -5.1 °F 49% 29.82 in 8.0 mi WSW 19.6 mph 31.1 mph 0.00 in   Overcast
11:53 AM 12.0 °F -6.9 °F -4.0 °F 49% 29.85 in 10.0 mi SW 21.9 mph 32.2 mph 0.00 in   Mostly Cloudy
12:53 PM 12.9 °F -4.9 °F -4.0 °F 47% 29.84 in 10.0 mi SW 19.6 mph 29.9 mph N/A   Overcast
1:53 PM 12.9 °F -3.9 °F -4.0 °F 47% 29.84 in 10.0 mi WSW 17.3 mph 29.9 mph N/A   Overcast
2:53 PM 14.0 °F -2.0 °F -2.9 °F 47% 29.84 in 10.0 mi WSW 16.1 mph 25.3 mph N/A   Overcast
3:53 PM 14.0 °F -2.5 °F -4.0 °F 45% 29.84 in 10.0 mi SW 17.3 mph 25.3 mph N/A   Mostly Cloudy
4:53 PM 12.0 °F -4.0 °F -0.9 °F 56% 29.85 in 10.0 mi SW 15.0 mph - N/A   Overcast
5:53 PM 10.9 °F -4.1 °F -2.0 °F 56% 29.86 in 10.0 mi SW 12.7 mph - N/A   Mostly Cloudy
6:53 PM 8.1 °F -6.2 °F -5.1 °F 55% 29.87 in 10.0 mi SSW 10.4 mph - N/A   Clear
7:53 PM 6.1 °F -6.8 °F -7.1 °F 55% 29.86 in 10.0 mi SSW 8.1 mph - N/A   Clear
8:53 PM 3.9 °F -8.2 °F -9.0 °F 55% 29.86 in 10.0 mi SSW 6.9 mph - N/A   Clear
9:53 PM 1.9 °F -9.2 °F -9.9 °F 58% 29.85 in 10.0 mi SSW 5.8 mph - N/A   Clear
10:53 PM 1.9 °F -7.6 °F -9.0 °F 60% 29.84 in 10.0 mi South 4.6 mph - N/A   Mostly Cloudy
11:53 PM 3.9 °F -5.3 °F -7.1 °F 60% 29.82 in 10.0 mi South 4.6 mph - N/A   Overcast